Tracking 17558 objects as of 9-February-2016
HD Live streaming from Space Station
objects crossing your sky now

GLOBALSTAR M042

Track GLOBALSTAR M042 now!
10-day predictions
GLOBALSTAR M042 is classified as:


NORAD ID: 25679
Int'l Code: 1999-019D
Perigee: 1,588.8 km
Apogee: 1,593.3 km
Inclination: 52.0 °
Period: 117.8 minutes
Semi major axis: 7962 km
RCS: 2.3601 m2 (large)
Launch date: April 15, 1999
Source: Globalstar (GLOB)
Launch site: TYURATAM MISSILE AND SPACE COMPLEX (TTMTR)
Your satellite tracking list
Your tracking list is empty





NASA's NSSDC Master Catalog

Two Line Element Set (TLE):
1 25679U 99019D   16039.96513766 -.00000044 +00000-0 +44957-3 0  9990
2 25679 052.0036 333.9899 0002873 115.5896 32.7951 12.21986259767637
Source of the keplerian elements: AFSPC

N2YO: 1001